Location: Moscow
(30.9132°N, 94.8252°W)
Time: 13:44:27
(UTC+00:00)

Intelsat 5-1 Rocket - Pass Details

Date: 15 November 2025
Orbit: 307 x 6817 km, 23.9° (Epoch: 06 December)

Event Time Altitude Azimuth Distance (km) Brightness Sun altitude
Rises 00:29:22 0° 209° (SSW) 2,603 5.9 -14.7°
Reaches altitude 10° 00:31:31 10° 188° (S) 2,077 5.0 -15.1°
Maximum altitude 00:35:03 20° 140° (SE) 2,118 4.5 -15.9°
Enters shadow 00:38:27 15° 110° (ESE) 3,025 5.1 -16.6°
